Theta_e
317 317 317 317 317 318 318 318 319 319 319 319 319 320 321 321 321 319 311 318 324 350 347 333 329 336 344 341 341 341 324 320 320 320 321 328 329 336 339 336 339 342 339 342 345
317 317 317 317 317 317 317 318 318 318 318 318 319 319 320 320 317 313 326 340 349 345 321 327 324 333 334 335 335 331 320 318 327 327 326 327 327 331 331 332 336 338 342 343 344
316 316 315 316 316 316 317 317 317 317 317 317 318 318 319 320 314 314 349 339 348 341 322 329 329 332 330 333 331 329 322 326 326 329 330 326 327 332 329 328 336 335 337 340 341
315 315 316 316 316 316 316 317 316 317 317 317 317 318 319 318 306 323 351 346 347 322 322 323 327 328 328 325 330 324 327 328 328 330 329 327 327 326 329 330 341 341 341 341 339
315 316 316 316 316 316 317 317 316 316 316 317 317 318 316 312 311 325 351 345 325 318 320 320 323 326 325 327 327 325 326 329 329 329 331 329 327 327 328 336 341 342 341 340 341
316 316 316 316 316 316 317 316 316 315 318 321 319 318 313 308 325 327 330 329 321 318 320 320 323 327 328 327 324 327 328 328 330 329 326 324 327 327 329 335 337 340 339 341 340
316 316 316 316 316 316 316 315 314 315 320 324 322 318 312 313 326 322 324 327 324 322 317 320 325 325 328 325 328 325 322 326 327 326 324 325 321 325 332 335 335 337 340 341 341
316 316 315 316 315 315 314 314 314 317 324 321 324 318 311 328 326 325 318 321 324 325 323 323 324 324 325 329 325 321 322 316 324 326 325 321 314 326 334 334 333 335 337 340 341
315 315 315 315 314 313 312 312 314 320 321 321 319 316 314 327 322 324 322 320 323 326 325 325 322 318 321 319 316 318 312 316 319 325 322 319 315 324 332 333 333 334 335 337 341
315 315 314 314 313 312 311 312 319 320 321 323 323 315 317 316 321 323 324 320 320 323 321 320 318 312 314 315 308 311 310 315 315 319 320 317 316 323 327 331 333 336 335 337 337
315 314 313 313 311 310 311 313 306 313 309 310 315 313 317 323 322 318 322 318 322 321 314 319 312 308 311 316 317 316 312 311 316 320 317 316 317 322 326 327 331 335 336 336 337
314 313 313 312 311 310 310 306 304 306 299 306 307 308 313 319 315 316 320 313 316 314 318 315 310 314 316 316 315 315 312 311 314 319 319 318 316 320 324 326 327 333 336 337 336
314 313 312 310 310 311 310 306 310 310 299 301 306 306 307 311 311 315 315 314 313 314 315 311 313 317 315 314 311 314 312 311 311 315 319 317 314 318 322 325 329 332 337 338 338
313 312 311 309 308 311 307 310 311 310 294 299 305 308 308 309 307 319 317 317 314 312 315 313 317 314 313 311 312 306 315 314 313 311 307 318 306 317 319 320 325 328 334 336 339
312 311 309 307 308 308 307 310 310 308 285 307 307 316 312 305 311 310 321 314 310 310 315 312 310 310 309 310 311 307 312 312 311 310 309 310 308 313 319 317 321 327 332 335 339
311 309 308 310 311 311 310 310 307 293 286 302 308 306 307 307 307 312 314 316 315 312 314 315 318 313 311 312 311 312 309 309 309 308 302 307 307 310 314 318 321 326 330 336 338
309 307 307 311 306 310 310 305 291 287 299 297 298 301 302 304 305 306 309 308 304 302 305 310 312 315 314 309 312 310 306 299 298 299 298 308 306 310 316 321 323 324 329 336 338
307 306 313 313 312 310 306 297 286 292 294 299 297 298 298 303 305 306 306 306 307 305 304 302 300 310 313 310 307 307 306 299 294 295 298 307 302 308 318 321 323 326 329 332 336
306 313 312 312 311 309 301 290 290 293 296 293 295 295 297 301 301 304 305 306 308 306 303 303 303 312 313 312 312 307 303 309 303 304 300 303 307 312 317 318 321 322 326 329 332
307 309 310 312 311 306 297 291 294 297 296 295 289 292 289 293 294 297 303 308 308 309 310 308 303 310 311 313 312 310 312 302 304 297 297 302 306 306 312 316 319 321 323 328 331
308 304 309 312 310 302 293 293 295 297 296 292 290 290 291 290 293 295 299 304 307 308 312 308 306 307 311 308 306 307 307 307 306 304 299 300 303 317 316 318 320 322 324 327 331
306 299 311 310 297 298 293 295 295 295 298 295 295 293 292 292 291 293 297 301 308 306 304 311 305 302 307 313 313 311 308 309 302 302 305 305 305 317 320 321 321 322 325 328 332
301 303 310 306 292 293 296 294 295 294 294 294 292 294 295 291 289 294 295 304 305 304 303 306 305 301 303 310 312 308 309 310 310 308 305 302 304 318 319 319 324 322 326 328 333
303 296 302 302 300 295 293 292 291 297 295 294 294 295 293 291 293 290 293 300 303 304 312 308 305 305 301 306 311 307 307 309 308 304 305 306 308 313 316 317 321 325 328 329 333
301 298 298 293 295 295 294 293 290 291 294 296 293 292 292 288 289 290 293 296 300 307 305 307 302 306 308 311 311 308 307 308 307 310 306 308 309 314 319 319 322 325 329 330 333
298 295 298 297 298 295 294 292 291 292 292 291 290 293 293 289 290 289 292 293 294 300 300 304 301 305 305 309 309 308 308 308 309 309 310 310 311 318 321 323 323 325 326 328 330
304 302 296 293 295 292 293 293 292 294 295 295 293 292 290 293 296 296 297 296 296 295 297 297 300 300 298 306 307 304 308 309 310 311 310 308 315 319 319 320 322 323 323 323 323
Wind_Speed
21 21 21 22 22 21 21 20 21 20 18 19 18 17 17 16 19 14 18 13 18 13 8 12 18 20 19 21 19 22 5 8 10 12 4 15 15 20 18 15 11 13 26 27 26
22 22 22 23 23 23 22 21 21 21 20 18 16 16 16 14 18 24 16 20 8 18 14 18 21 21 17 19 16 14 4 8 12 7 9 12 15 18 13 15 26 28 29 27 25
23 23 23 23 24 24 24 23 22 21 20 19 16 15 14 13 12 14 3 28 18 18 21 19 19 21 21 18 16 8 6 19 23 15 3 11 16 16 15 17 26 27 30 29 26
23 24 24 24 25 25 25 24 23 22 21 19 16 13 10 11 7 7 5 21 23 20 21 22 22 23 22 20 20 11 3 18 15 23 17 6 10 16 10 20 27 27 28 29 26
24 24 24 25 26 26 25 24 24 23 20 17 14 9 7 11 15 7 13 17 20 20 23 23 24 23 23 21 20 19 20 20 12 19 25 25 10 4 21 22 25 28 27 29 26
25 25 25 26 26 26 26 25 23 22 18 13 9 7 8 18 15 17 14 17 19 23 24 24 21 22 21 23 21 17 20 20 26 16 6 11 19 26 17 23 24 27 27 26 27
25 26 27 28 28 28 27 24 24 20 18 12 11 11 15 23 13 9 17 17 20 23 25 25 24 23 24 21 23 19 17 17 16 12 10 12 12 17 5 26 25 25 24 24 23
25 26 28 29 30 31 28 23 22 18 16 9 12 12 12 14 24 22 13 18 18 20 24 23 22 21 24 20 18 20 18 17 17 17 12 10 14 16 32 24 24 24 22 23 24
26 27 28 29 31 31 30 28 21 14 6 5 10 11 11 5 19 20 20 20 19 19 21 21 20 22 20 21 19 21 17 22 19 19 17 15 16 13 15 21 26 22 21 21 20
26 27 30 30 32 33 32 35 6 7 8 11 13 10 11 14 12 20 23 19 22 19 21 23 17 20 21 20 21 19 21 18 21 22 23 20 18 14 20 21 25 24 22 21 23
26 27 28 30 32 32 19 7 15 5 12 21 9 17 18 9 6 15 22 22 23 23 23 24 19 26 29 25 24 21 21 24 19 22 26 22 18 19 17 19 20 22 23 22 22
28 28 29 30 30 30 17 16 14 12 23 21 29 32 33 29 17 15 22 25 26 26 25 22 28 26 26 25 27 27 25 24 21 23 17 23 21 22 23 26 22 22 23 23 23
27 30 30 33 32 19 9 17 15 14 14 21 31 26 31 27 26 19 27 29 29 30 30 28 19 26 25 26 27 28 27 24 22 21 17 15 19 19 20 21 20 20 23 24 23
26 27 29 28 10 17 13 18 16 12 10 12 14 11 27 25 31 27 28 28 25 31 30 27 30 29 27 27 26 27 28 26 25 21 16 28 14 18 17 18 22 18 22 24 24
25 27 26 17 13 11 18 18 17 8 10 10 8 7 9 28 6 33 26 28 31 26 31 28 26 28 28 29 27 24 24 24 26 23 18 22 16 14 20 20 20 23 23 23 24
29 27 24 13 10 12 17 17 12 8 11 12 14 25 10 24 29 12 34 31 27 27 28 31 26 25 25 23 26 24 23 23 24 18 19 22 20 20 19 23 21 21 21 24 25
31 33 20 12 9 16 14 11 7 9 17 17 30 29 29 22 24 30 30 32 28 30 28 28 34 29 26 21 25 23 21 13 16 19 15 21 23 15 16 19 25 24 22 23 21
32 35 12 11 12 14 12 12 11 12 20 25 26 28 23 21 24 26 25 28 33 30 18 22 28 35 25 29 23 27 25 14 21 17 16 22 24 21 21 22 17 20 24 24 24
34 11 10 8 12 10 11 10 7 14 16 19 25 20 20 29 25 26 30 28 30 33 32 25 29 28 33 24 27 23 28 23 21 20 17 18 28 25 24 25 22 16 21 25 25
13 12 14 10 12 10 11 14 13 11 17 20 20 21 23 26 25 26 17 26 27 32 31 29 18 29 32 28 29 31 21 22 18 21 19 19 21 19 24 23 23 19 16 21 22
8 9 8 12 11 10 12 11 16 19 16 18 21 21 21 14 21 25 12 22 26 19 30 30 26 21 29 32 27 22 22 25 19 17 15 13 13 12 25 22 19 21 18 17 20
9 9 10 7 14 7 9 11 14 16 22 16 19 17 7 12 16 14 19 13 29 26 19 19 23 23 26 27 31 28 28 25 14 22 15 15 4 11 5 20 16 15 21 14 15
10 14 6 11 9 11 14 15 17 6 12 14 21 16 18 12 11 10 17 20 29 27 13 14 14 19 25 23 31 33 30 27 22 18 19 14 7 7 9 7 15 14 13 17 13
8 9 10 9 11 19 17 14 13 17 4 3 19 14 15 19 11 4 15 15 26 27 15 8 12 20 18 21 18 28 30 28 27 19 15 18 9 8 6 4 8 13 10 11 12
6 6 9 8 13 17 14 15 8 16 6 27 14 2 16 14 13 8 15 23 19 21 22 9 14 16 22 25 16 26 25 30 31 20 23 18 18 15 12 9 8 7 6 9 9
4 5 7 14 15 17 17 9 12 18 14 19 15 15 17 14 9 14 12 15 9 18 19 19 7 13 20 22 20 20 31 30 29 29 23 24 18 21 15 14 10 10 9 10 8
1 1 3 7 13 11 12 16 19 17 14 15 16 13 18 17 13 15 15 16 17 20 17 11 13 10 18 17 20 20 14 25 24 25 24 20 16 17 21 17 14 11 7 5 1
Wind_Direction
355 351 347 343 340 337 333 330 325 321 316 312 310 306 305 306 302 255 245 237 204 191 226 208 211 216 211 230 218 247 306 314 323 99 219 127 91 94 103 124 118 103 135 144 144
351 347 343 340 336 333 330 326 322 318 312 308 304 302 303 312 291 265 243 227 157 171 213 210 207 209 222 232 232 233 90 268 223 311 260 96 121 130 131 109 108 114 125 145 151
347 343 339 336 333 330 326 322 319 315 308 302 295 294 299 306 275 251 10 202 171 175 214 219 214 210 225 229 225 199 182 239 276 291 99 127 135 130 136 127 124 136 143 153 158
344 340 336 333 330 327 323 319 318 312 305 296 288 284 292 272 267 69 26 177 163 193 214 226 214 212 225 231 235 201 121 268 297 295 128 13 348 145 167 124 128 143 152 151 160
340 336 333 330 327 324 319 318 316 312 306 293 277 264 246 219 245 215 124 146 170 197 209 222 211 216 221 231 233 243 183 214 267 268 115 111 226 290 119 122 131 144 158 156 166
338 335 332 330 326 323 319 317 313 312 305 294 255 211 234 247 251 199 151 166 188 200 211 222 216 222 227 236 238 231 188 195 208 225 187 171 182 138 153 131 139 151 161 165 174
337 334 332 329 326 322 318 316 312 309 303 295 224 218 237 237 264 200 186 188 198 200 208 219 224 221 226 231 248 251 247 249 253 225 217 194 192 181 53 136 146 160 166 168 176
335 333 331 329 326 321 319 313 307 300 301 291 200 209 255 247 235 264 221 199 208 194 218 218 223 234 234 244 251 248 233 242 222 225 219 200 220 182 163 150 152 162 171 171 185
335 333 330 329 325 320 318 307 297 278 309 167 179 225 259 190 226 216 227 208 199 199 215 231 217 230 232 230 239 234 237 235 236 206 222 204 240 173 155 161 156 163 173 176 183
334 333 330 329 325 320 321 304 293 213 218 201 263 225 238 237 209 219 205 215 199 196 208 225 213 217 228 214 222 220 222 230 228 201 209 205 228 163 191 177 164 165 172 180 184
334 333 330 328 323 318 329 346 353 180 334 282 245 245 293 226 297 187 203 206 207 200 207 208 214 215 216 224 227 237 225 222 231 227 199 213 208 166 182 107 192 172 168 180 185
333 332 330 327 320 311 301 12 1 297 298 274 264 263 265 276 272 216 192 200 204 204 203 201 224 215 221 217 227 232 246 236 227 224 193 215 216 195 181 177 220 174 174 178 184
332 330 330 327 317 298 353 359 327 321 286 285 245 240 233 233 240 215 194 200 203 204 203 215 214 220 218 220 224 224 232 242 243 234 186 241 220 229 193 180 209 180 180 178 184
328 327 326 332 299 322 353 336 325 325 284 268 204 243 222 221 227 235 194 204 209 212 209 219 222 200 217 221 221 223 225 238 250 246 217 202 220 210 221 221 177 199 180 183 180
329 328 330 323 301 310 343 325 316 279 290 95 104 11 196 203 210 212 205 207 215 207 209 210 218 223 206 220 218 229 220 227 247 256 258 238 227 222 205 213 198 195 183 187 180
331 327 336 306 257 285 324 318 286 243 245 357 29 350 267 207 230 252 205 204 218 220 220 226 212 224 220 209 223 218 231 222 224 245 245 244 245 214 213 203 218 191 195 185 181
326 319 317 297 296 323 323 298 274 249 302 3 342 340 324 303 220 242 190 203 206 216 214 217 231 216 224 217 208 214 215 212 217 213 231 230 245 248 241 205 204 202 188 183 185
323 310 265 253 297 322 303 281 273 276 329 348 337 316 296 299 303 220 226 209 206 219 217 213 213 220 204 222 206 211 214 216 212 219 221 226 228 232 247 260 247 196 184 185 185
317 304 253 199 333 307 287 283 2 353 338 328 323 314 333 342 341 295 228 211 207 220 221 212 226 205 230 207 220 191 216 218 228 222 229 223 219 239 223 236 247 231 194 185 187
313 290 266 3 318 282 266 276 304 351 335 317 308 307 314 319 323 333 307 230 212 211 234 243 235 223 200 221 214 229 196 215 228 242 232 225 228 209 213 220 218 228 229 187 185
281 296 57 341 296 262 265 328 346 332 310 302 300 303 302 358 324 316 300 323 5 312 208 234 249 238 216 205 206 207 211 209 232 238 242 251 226 220 194 199 208 209 205 205 186
300 302 335 314 296 334 346 350 325 351 323 322 309 301 5 330 316 319 304 314 330 321 295 238 231 246 249 207 206 211 215 208 221 218 248 274 314 32 217 179 174 226 181 214 201
310 303 334 352 324 337 340 332 332 6 323 344 316 330 316 314 310 300 334 316 312 321 3 354 245 227 241 242 192 210 208 222 210 234 222 243 231 70 52 85 176 190 193 186 200
296 317 338 331 352 341 336 326 333 325 314 153 269 311 321 315 288 302 327 319 316 306 332 297 262 251 224 230 219 193 211 207 225 210 226 222 139 136 103 96 163 165 191 191 192
327 321 355 316 330 322 311 315 333 298 17 293 313 16 306 304 324 274 331 316 331 322 331 278 260 261 248 248 222 193 210 212 215 214 219 217 209 138 134 156 133 104 155 173 137
336 339 335 299 303 312 309 311 304 327 326 327 327 322 256 305 329 318 329 323 309 312 337 334 285 284 262 271 268 267 197 213 210 222 213 236 215 135 129 131 141 112 79 80 62
44 302 287 278 289 304 305 321 312 317 316 294 296 298 297 317 324 294 282 267 266 288 311 327 338 312 260 249 254 252 245 207 216 205 222 221 237 145 152 151 154 143 121 94 127